Helicity
77 133 115 80 103 145 152 168 174 176 170 154 204 285 314 416 392 415 339 248 162 254
93 99 93 76 99 92 174 153 171 170 169 154 196 257 298 468 443 367 391 283 171 216
73 118 83 74 92 97 123 163 170 162 151 148 164 210 271 299 343 425 263 193 122 152
71 53 91 113 100 106 126 121 170 160 168 150 159 171 211 240 252 267 273 237 140 153
89 64 120 147 106 124 119 130 158 142 141 185 183 201 182 259 264 266 305 255 124 139
102 80 96 119 108 124 127 103 100 99 110 173 214 189 222 236 261 310 271 160 83 82
114 107 117 132 139 151 121 107 99 98 97 130 151 163 184 205 253 189 191 188 164 162
112 100 124 138 149 143 120 109 113 117 118 115 104 122 153 174 211 228 256 342 376 345
131 100 104 132 140 116 123 140 116 132 196 149 138 103 94 166 196 319 501 692 688 681
137 81 79 140 146 140 165 186 209 189 168 162 163 271 368 493 449 627 747 752 799 896
103 81 98 144 161 231 215 210 223 201 169 162 196 293 461 474 439 509 581 549 574 704
155 83 106 184 283 260 274 253 246 215 205 176 169 259 351 380 405 400 415 405 450 529
173 108 173 264 288 343 320 295 285 294 256 208 199 215 333 392 383 404 381 400 428 404
108 193 276 307 318 375 375 368 354 370 342 306 274 269 290 331 375 377 407 379 366 327
Wind_Speed
26 37 34 26 26 23 22 21 15 14 13 8 7 18 50 59 62 72 66 61 55 52
30 43 35 33 27 27 22 19 11 10 11 7 6 12 43 55 58 67 68 69 56 51
31 44 38 31 30 26 23 16 9 8 8 8 9 8 39 52 55 62 67 62 61 53
31 38 42 37 31 28 23 17 10 8 6 9 10 14 23 46 52 64 60 57 56 56
34 37 39 39 40 31 29 21 15 10 11 11 11 17 21 23 49 56 55 62 61 58
40 36 40 38 33 30 30 24 14 11 22 18 15 16 21 25 33 48 61 57 52 47
44 39 42 38 34 31 31 26 22 20 25 23 13 16 18 26 40 36 56 59 60 50
45 41 43 41 35 32 30 24 23 21 21 20 21 19 18 25 42 46 50 59 61 57
45 38 44 40 32 31 27 22 20 19 20 19 27 27 15 26 52 53 47 52 52 49
42 40 48 40 35 34 27 21 19 18 16 19 24 14 8 14 16 27 34 38 43 48
45 58 46 41 38 34 27 19 14 13 14 15 15 10 11 16 12 5 14 22 28 27
67 64 48 44 36 35 25 21 16 12 9 10 12 13 16 14 15 19 11 4 4 7
72 64 47 41 37 36 26 20 14 10 8 6 9 11 14 19 19 18 16 12 8 8
77 65 43 41 37 34 24 21 15 9 8 5 5 7 10 16 18 19 15 12 10 8
Wind_Direction
258 264 266 269 280 286 292 293 298 294 286 282 265 255 238 229 225 220 224 224 227 235
261 266 266 275 277 288 294 299 292 289 282 255 259 253 239 232 223 225 224 228 229 231
257 261 270 271 276 283 292 297 286 280 262 220 227 208 249 237 234 227 226 229 228 234
264 258 264 266 273 280 286 289 294 277 249 200 222 190 246 244 235 231 229 231 233 235
264 263 258 261 270 279 283 291 299 273 258 222 224 216 200 231 244 230 230 233 236 236
265 255 257 259 263 270 277 285 287 277 279 270 244 219 224 205 233 234 234 233 235 230
264 255 255 257 260 267 275 279 288 293 291 285 248 233 231 253 243 220 236 239 240 235
266 257 252 255 255 262 270 277 288 297 300 290 279 274 255 254 254 226 234 241 241 241
266 249 250 248 246 254 261 275 288 300 307 307 295 291 275 295 260 249 236 236 239 239
262 250 244 238 241 248 255 268 284 299 313 320 315 323 3 347 276 249 240 234 238 243
261 248 240 233 236 242 249 256 272 294 317 344 349 14 36 66 36 298 254 242 244 237
257 243 235 233 229 237 238 249 263 282 316 0 26 48 75 75 64 72 63 20 243 208
252 240 232 226 228 236 236 238 248 266 301 356 35 40 70 90 99 93 89 61 59 80
251 239 221 227 227 225 221 226 234 240 274 313 9 33 63 88 105 106 100 89 85 83